Regional Weather Roundup
Issued by NWS

Home | Current Version | Previous Version | Text Only | Print | Product List | Glossary On
Versions: 1 2 3 4 5 6 7 8 9 10 11 12 13 14 15 16 17 18 19 20 21 22 23 24 25 26 27 28 29 30 31 32 33 34 35 36 37 38 39 40 41 42 43 44 45 46 47 48 49 50
519
ASUS43 KDTX 200801
RWRMI
MICHIGAN HOURLY REGIONAL WEATHER ROUNDUP
NATIONAL WEATHER SERVICE DETROIT/PONTIAC MI
400 AM EDT SUN MAY 20 2018

NOTE: "FAIR" INDICATES FEW OR NO CLOUDS BELOW 12,000 FEET WITH NO
SIGNIFICANT WEATHER AND/OR OBSTRUCTION TO VISIBILITY.

MIZ047>049-052>055-059>063-066>070-074>076-081>083-200900-
SOUTHEAST LOWER MICHIGAN

CITY           SKY/WX    TMP DP  RH WIND       PRES   REMARKS
ADRIAN         CLOUDY    59  56  89 NW8       30.02R
ALMA           FAIR      51  48  89 N6        30.04R
ANN ARBOR      CLOUDY    60  58  92 W7        29.99R
BAD AXE        FAIR      48  48 100 CALM      30.00R
CARO           MOCLDY    55  52  89 N3        30.00S
DETROIT CITY   CLOUDY    62  59  90 N6        29.97R
DETROIT        CLOUDY    62  57  83 NW7       29.98R
FLINT          CLOUDY    57  55  93 N10       30.00R
GROSSE ILE     CLOUDY    62  58  87 NW10      29.97R
HILLSDALE      CLOUDY    55  54  94 NW10      30.02R
HOWELL         CLOUDY    58  56  95 N6        30.00R

CITY           SKY/WX    TMP DP  RH WIND       PRES   REMARKS
JACKSON        CLOUDY    57  56  96 W6        30.03R
LAMBERTVILLE   CLOUDY    62  57  83 N5        29.99R
LANSING        CLOUDY    56  54  93 N8        30.04R
LAPEER         CLOUDY    56  55  97 N6        30.00R
MASON          CLOUDY    58  55  89 NW7       30.03R
MONROE         CLOUDY    61  59  92 NW12      29.98R
MT. CLEMENS    CLOUDY    59  59 100 NE13        N/A
PONTIAC        CLOUDY    59  58  96 N8        29.97S FOG
PORT HOPE        N/A     52  50  93 NW9       29.98R
PORT HURON     CLOUDY    50  48  93 N3        30.00R FOG
TRI CITIES     CLOUDY    54  52  93 NW6       30.02R
MIDLAND        CLOUDY    53  51  92 CALM      30.02R
TROY           DRIZZLE   61  59  94 N5        30.00R
SAGINAW HB     CLOUDY    55  52  88 NW10      30.01R
$$
MIZ043>046-050>051-056>058-064>065-071>073-077>080-200900-
SOUTHWEST LOWER MICHIGAN

CITY           SKY/WX    TMP DP  RH WIND       PRES   REMARKS
BATTLE CREEK   CLOUDY    57  54  89 NW5       30.05S
BENTON HARBOR  CLOUDY    48  47  96 VRB3      30.04S FOG
BIG RAPIDS     MOCLDY    46  42  84 CALM      30.06R
COLDWATER      CLOUDY    57  55  93 N6        30.02F
FREMONT        CLOUDY    49  48  95 NW6       30.07R
HOLLAND        CLOUDY    51  48  89 NW6       30.06S
GRAND RAPIDS   CLOUDY    57  53  86 N7        30.04R
IONIA          CLOUDY    55  52  89 N3        30.04R
KALAMAZOO      CLOUDY    56  53  90 N6        30.04S
LUDINGTON      CLOUDY    43  40  89 N8        30.10R
MARSHALL       CLOUDY    56  55  94 CALM      30.03S
MOUNT PLEASANT FAIR      50  46  86 NW3       30.03R
MUSKEGON       CLOUDY    50  45  83 NW8       30.07R
SOUTH HAVEN    CLOUDY    49  47  95 N3        30.05S
$$
MIZ016>042-200900-
NORTHERN LOWER MICHIGAN

CITY           SKY/WX    TMP DP  RH WIND       PRES   REMARKS
ALPENA         CLOUDY    48  46  93 NW9       30.03R
BEAVER ISLAND  FAIR      42  39  88 N3        30.11R
BELLAIRE       MOCLDY    42  39  91 CALM      30.09R
CADILLAC       MOCLDY    41  40  96 N6        30.05S
CHARLEVOIX     FAIR      41  41 100 NW8       30.13R
FRANKFORT      CLOUDY    43  40  89 N6        30.12R
GAYLORD        CLOUDY    42  41  96 CALM      30.04S
HARBOR SPRINGS FAIR      41  40  97 CALM      30.08R
HOUGHTON LAKE  MOCLDY    42  39  89 NW10      30.05R
MANISTEE       MOCLDY    44  39  82 N7        30.11R
OSCODA         FAIR      51  48  91 NW9       29.99R
PELLSTON       FAIR      41  39  93 W7        30.07R
ROGERS CITY    CLOUDY    46  43  87 NW7       30.05R
TRAVERSE CITY  FAIR      43  38  82 N7        30.10R
$$
MIZ007>008-015-200900-
EASTERN UPPER MICHIGAN

CITY           SKY/WX    TMP DP  RH WIND       PRES   REMARKS
KINROSS        CLOUDY    41  38  89 NW10      30.06R
MACKINAC ISLAN FAIR      42  42 100 NW7       30.06R
NEWBERRY       FAIR      37  36  96 NW5       30.10R WCI  33
S. S. MARIE    MOCLDY    42  39  89 NW5       30.06R
$$
MIZ004>006-011>014-085-200900-
CENTRAL UPPER MICHIGAN

CITY           SKY/WX    TMP DP  RH WIND       PRES   REMARKS
MANISTIQUE     CLOUDY    39  38  94 N12       30.12R WCI  32
ESCANABA       CLOUDY    41  35  79 NW9       30.16R
SAWYER-GWINN   CLOUDY    37  32  82 N12       30.16R WCI  29
$$
MIZ001>003-009>011-084-200900-
WESTERN UPPER MICHIGAN

CITY           SKY/WX    TMP DP  RH WIND       PRES   REMARKS
IRON MOUNTAIN  CLOUDY    41  34  76 N7        30.17R
HOUGHTON       FAIR      39  30  70 NE5       30.18S
COPPER HARBOR    N/A     34  31  88 W5        30.19F WCI  30
IRONWOOD       FAIR      35  34  96 CALM      30.23R
$$

ABBREVIATIONS USED IN REMARKS
   TC - TEMPERATURE IN CELSIUS
  WCI - WIND CHILL INDEX
   HX - HEAT INDEX
  VSB - VISIBILITY





USA.gov is the U.S. government's official web portal to all federal, state and local government web resources and services.